Content
SEND FEEDBACK

Daily
Averages
Monthly
Summary
France

PARIS, FRANCE


Home > Europe > France
Elevation: 96 meters     Latitude: 48 44N     Longitude: 002 24E

WEATHER
 
SELECT A DAY
Number of Records: 331,541;   Date Range: 7/1/96 - 12/26/14
 
SHARE

PRINT THIS DATA

[ ← Previous Day ]
WEATHER ALMANAC - 14 FEBRUARY, 2013
[ Next Day → ]
[ °F ]   °C
Weather ElementAverageHighLow
Temperature1.4 °C5 °C (4:00 pm)-1.1 °C (1:00 am)
Dewpoint-0.1 °C5 °C (4:30 pm)-6.1 °C (1:00 am)
Humidity89.4 %100 % (10:30 am)58 % (1:00 am)
Barometer1016.9 hPa1024.4 hPa (1:00 am)1013.2 hPa (3:00 pm)
Wind Speed12.4 km/h18.5 km/h (9:00 am)
Weather ElementAverage
Visibility5.6 km
Wind DirectionSSW (196.5 °)

Weather ElementTotal
Precipitation---
Heating Degree Days16.4 (Base 18.3)
Averaged from 51 records on 14 February, 2013
WEATHER CONDITIONS BREAKOUT
WIND DIRECTION BREAKOUT
WEATHER BY HOUR - 14 FEBRUARY, 2013
[ °F ]   °C
Local TimeTemperatureDewpointHumidityBarometerVisibilityWind DirectionWind SpeedGust SpeedPrecipitationEventsConditions
12:30 AM-1 °C-6 °C69 %1023 hPaSouth (170°)13 km/hClear
1:00 AM-1.1 °C-6.1 °C58 %1024.4 hPa9.7 kmSouth (170°)14.8 km/hMostly Cloudy
1:00 AM-1 °C-6 °C69 %1023 hPaSouth (170°)14.8 km/hClear
1:30 AM-1 °C-6 °C69 %1023 hPaSouth (180°)13 km/hClear
2:00 AM-1 °C-6 °C69 %1022 hPaSouth (170°)13 km/hClear
2:30 AM-1 °C-6 °C69 %1022 hPa9 kmSouth (180°)11.1 km/h
3:00 AM-1 °C-5 °C75 %1022 hPa9 kmSouth (170°)14.8 km/h
3:30 AM-1 °C-6 °C69 %1021 hPa9 kmSouth (180°)13 km/hMostly Cloudy
4:00 AM-1 °C-5 °C75 %1021 hPa9 kmSouth (180°)14.8 km/hMostly Cloudy
4:30 AM-1 °C-5 °C75 %1021 hPa9 kmSouth (180°)14.8 km/hMostly Cloudy
5:00 AM-1 °C-5 °C75 %1020 hPa8 kmSouth (180°)13 km/hLight Ice Pellets
5:30 AM-1 °C-4 °C80 %1020 hPa8 kmSouth (170°)16.7 km/hRainRain
6:00 AM-1 °C-4 °C80 %1020 hPa8 kmSouth (170°)14.8 km/hMostly Cloudy
6:30 AM-1 °C-3 °C86 %1019 hPa6 kmSouth (170°)13 km/hMostly Cloudy
7:00 AM-0.6 °C-3.3 °C75 %1020.3 hPa6.4 kmSouth (180°)13 km/hLight Freezing Rain
7:00 AM-1 °C-3 °C86 %1019 hPa6 kmSouth (180°)13 km/hRainRain
7:30 AM-1 °C-3 °C86 %1019 hPa6 kmSouth (170°)14.8 km/hRainRain
8:00 AM-1 °C-2 °C93 %1019 hPa4 kmSouth (170°)16.7 km/hRainRain
8:30 AM0 °C-1 °C93 %1017.9 hPa3.5 kmSouth (170°)14.8 km/hRainRain
9:00 AM0 °C-1 °C93 %1017.9 hPa3.5 kmSouth (170°)18.5 km/hRainRain
9:30 AM0 °C-1 °C93 %1017.3 hPa3.5 kmSouth (170°)13 km/hMostly Cloudy
10:00 AM0 °C-1 °C93 %1017.3 hPa3.5 kmSouth (180°)18.5 km/hMostly Cloudy
10:30 AM0 °C0 °C100 %1017.3 hPaSouth (190°)16.7 km/hMostly Cloudy
11:00 AM1 °C0 °C93 %1016.3 hPa1.9 kmSouth (180°)14.8 km/hMostly Cloudy
11:30 AM1 °C1 °C100 %1016.3 hPa1.4 kmSouth (190°)16.7 km/hRainLight Rain
12:00 PM1 °C1 °C100 %1016.3 hPa1.1 kmSouth (190°)18.5 km/hRainRain
12:30 PM2 °C1 °C93 %1015.2 hPa1.9 kmSouth (190°)18.5 km/hRainLight Rain
1:00 PM1.7 °C1.7 °C99 %1015.6 hPa1.6 kmSouth (190°)18.5 km/hRainLight Rain
1:00 PM2 °C2 °C100 %1014.2 hPa1.9 kmSouth (190°)18.5 km/hRainLight Rain
1:30 PM3 °C2 °C93 %1014.2 hPa1.8 kmSouth (190°)14.8 km/hRainLight Rain
2:00 PM3 °C3 °C100 %1014.2 hPa1.8 kmSSW (200°)11.1 km/hRainLight Rain
2:30 PM3 °C3 °C100 %1014.2 hPa2.6 kmSSW (200°)11.1 km/hRainLight Rain
3:00 PM4 °C3 °C93 %1013.2 hPa4 kmSSW (200°)11.1 km/hRainRain
3:30 PM4 °C4 °C100 %1013.2 hPa6 kmSouth (190°)7.4 km/hRainLight Rain
4:00 PM5 °C4 °C93 %1013.2 hPa4 kmSouth (190°)5.6 km/hRainLight Rain
4:30 PM5 °C5 °C100 %1013.2 hPa6 kmSSW (210°)5.6 km/hMostly Cloudy
5:00 PM5 °C5 °C100 %1013.2 hPa8 kmVariable3.7 km/hMostly Cloudy
5:30 PM5 °C5 °C100 %1013.2 hPa8 kmVariable3.7 km/hMostly Cloudy
6:00 PM5 °C5 °C100 %1013.2 hPa6 kmWSW (240°)5.6 km/hMostly Cloudy
6:30 PM4 °C3 °C93 %1013.2 hPa6 kmSW (220°)3.7 km/hFogFog
7:00 PM3.9 °C3.9 °C98 %1014.6 hPa3.2 kmWSW (250°)5.6 km/hFogLight Fog
7:00 PM4 °C4 °C100 %1014.2 hPa4 kmWSW (250°)5.6 km/hFog
7:30 PM4 °C4 °C100 %1014.2 hPa4 kmWest (270°)1.9 km/hFogScattered Clouds
8:00 PM4 °C3 °C93 %1014.2 hPa4 kmWNW (290°)7.4 km/hFogPartly Cloudy
8:30 PM3 °C3 °C100 %1014.2 hPa6.9 kmWest (280°)7.4 km/hPartly Cloudy
9:00 PM3 °C2 °C93 %1015.2 hPa6.9 kmWNW (290°)14.8 km/hPartly Cloudy
9:30 PM3 °C3 °C100 %1015.2 hPa10 kmWest (280°)14.8 km/hScattered Clouds
10:00 PM4 °C3 °C93 %1015.2 hPa10 kmWest (280°)11.1 km/hScattered Clouds
10:30 PM3 °C3 °C100 %1015.2 hPa10 kmWest (280°)13 km/hScattered Clouds
11:00 PM3 °C3 °C100 %1015.2 hPaWest (280°)13 km/hClear
11:30 PM3 °C2 °C93 %1015.2 hPaWest (280°)13 km/hClear
Hourly data recorded from LFPO, located 0 kilometers away from Paris, France







STORIES FROM OUR PARTNERS